Location: Unspecified
(37.0866°N, 0.0000°E)
Time: 13:38:39
(UTC+00:00)

HAI YANG 1B - Visible Passes

Search period start: 04 April 2026 00:00
Search period end: 14 April 2026 00:00
Orbit: 778 x 799 km, 98.3° (Epoch: 28 March)

Date Brightness Start Highest point End Pass type
(mag) Time Alt. Az. Time Alt. Az. Time Alt. Az.
4 Apr 7.2 04:37:50 10° NNE 04:43:02 76° ESE 04:48:13 10° S visible
5 Apr 8.5 04:08:07 10° NNE 04:12:56 38° E 04:17:44 10° SSE visible
6 Apr 9.5 03:39:01 10° NE 03:42:43 20° E 03:46:24 10° SE visible
7 Apr 7.1 04:47:12 10° NNE 04:52:25 87° W 04:57:38 10° SSW visible
8 Apr 8.1 04:17:21 10° NNE 04:22:21 47° E 04:27:22 10° S visible
9 Apr 9.2 03:47:59 10° NE 03:52:11 24° E 03:56:21 10° SSE visible
10 Apr 9.9 03:19:56 10° ENE 03:21:52 12° E 03:23:49 10° ESE visible
10 Apr 7.1 04:56:36 10° N 05:01:47 70° WNW 05:06:58 10° SSW visible
11 Apr 7.7 04:26:37 10° NNE 04:31:46 60° E 04:36:54 10° S visible
12 Apr 8.9 03:57:05 10° NE 04:01:38 30° E 04:06:10 10° SSE visible
13 Apr 9.8 03:28:22 10° ENE 03:31:22 15° E 03:34:22 10° SE visible
